Regional Weather Roundup
Issued by NWS Sioux Falls, SD

Home | Current Version | Previous Version | Text Only | Print | Product List | Glossary On
Versions: 1 2 3 4 5 6 7 8 9 10 11 12 13 14 15 16 17 18 19 20 21 22 23 24 25 26 27 28 29 30 31 32 33 34 35 36 37 38 39 40 41 42 43 44 45 46 47 48 49 50
000
ASUS43 KFSD 312210
RWRFSD

WEATHER ROUNDUP FOR SE SOUTH DAKOTA/SW MINNESOTA/NW IOWA
NATIONAL WEATHER SERVICE SIOUX FALLS SD
500 PM CDT MON AUG 31 2015

NOTE: "FAIR" INDICATES FEW OR NO CLOUDS BELOW 12,000 FEET WITH NO
SIGNIFICANT WEATHER AND OR OBSTRUCTIONS TO VISIBILITY.


SDZ038>040-050-052>070-312300-
SOUTHEAST SOUTH DAKOTA

CITY           SKY/WX    TMP DP  RH WIND       PRES   REMARKS
BROOKINGS      PTSUNNY   82  70  65 SW13      29.89R
CHAMBERLAIN    PTSUNNY   80  65  59 N3        29.88F
HURON          MOSUNNY   80  66  62 N16       29.85S
MADISON        FAIR      82  68  61 SW10G17   29.89R
MITCHELL       SUNNY     85  68  56 NW15G21   29.85R
SIOUX FALLS    MOSUNNY   82  70  66 S14       29.87R
WINNER         FAIR      80  61  52 NW9       29.92S
YANKTON        SUNNY     84  68  58 S14       29.85S
$$

MNZ071-072-080-081-089-090-097-098-312300-
SOUTHWEST MINNESOTA

CITY           SKY/WX    TMP DP  RH WIND       PRES   REMARKS
FAIRMONT       SUNNY     82  66  57 S14G20    29.90S
JACKSON        MOSUNNY   81  68  65 S16       29.92S
LUVERNE        SUNNY     82  66  57 S14G20    29.89S
MARSHALL       SUNNY     82  66  57 SW12G22   29.88R
MONTEVIDEO     SUNNY     88  70  55 SW14      29.86R
PIPESTONE      MOSUNNY   81  68  65 SW14      29.89S
REDWOOD FALLS  SUNNY     84  67  56 S16       29.86S
TRACY          SUNNY     82  68  62 SW14G20   29.87S
WINDOM         SUNNY     82  66  57 S16G22    29.90S
WORTHINGTON    SUNNY     81  64  57 S14G23    29.90S
$$

IAZ001>003-012>014-020>022-031-032-NEZ013-014-SDZ071-312300-
NORTHWEST IOWA

CITY           SKY/WX    TMP DP  RH WIND       PRES   REMARKS
CHEROKEE       MOSUNNY   81  69  66 S10       29.91S
DENISON        MOSUNNY   81  68  65 S10       29.91S
ESTHERVILLE    SUNNY     81  69  67 S15       29.91S
LE MARS        SUNNY     82  70  65 S15       29.90R
ORANGE CITY    SUNNY     81  70  69 S14       29.90S
SHELDON        SUNNY     81  70  69 S15       29.89S
SIOUX CITY     SUNNY     84  69  60 S13       29.89S
SPENCER        PTSUNNY   83  67  58 S14G21    29.91S
STORM LAKE     MOSUNNY   79  68  69 S13G21    29.93S
$$

ABBREVIATIONS USED IN REMARKS
   TC - TEMPERATURE IN CELSIUS
  WCI - WIND CHILL INDEX
   HX - HEAT INDEX
  VSB - VISIBILITY




USA.gov is the U.S. government's official web portal to all federal, state and local government web resources and services.